Weather History for Grosseto, Italy

Change the Weather History Date:

Thursday, September 5, 2013

  Actual Average Record
Temperature  
Mean Temperature 77 °F -  
Max Temperature 90 °F 78 °F 91 °F (2004)
Min Temperature 64 °F 57 °F 51 °F (2007)
Cooling Degree Days 12    
Growing Degree Days 27 (Base 50)    
Moisture  
Dew Point 62 °F    
Average Humidity 64    
Maximum Humidity 94    
Minimum Humidity 23    
Precipitation  
Precipitation 0.00 in 0.09 in - ()
Sea Level Pressure  
Sea Level Pressure 30.02 in    
Wind  
Wind Speed 5 mph ()    
Max Wind Speed 8 mph    
Max Gust Speed -    
Visibility 12.0 miles    
Events      
Averages and records for this station are not official NWS values.
T = Trace of Precipitation, MM = Missing Value Source: Averaged Metar Reports

Daily Weather History Graph

Daily Weather History Graph

Search for Another Location

Airport:

Trip Planner

Search our weather history database for the weather conditions in past years. The results will help you decide how hot, cold, wet, or windy it might be!

Date:

Astronomy

Sep. 05, 2013 Rise Set
Actual Time 6:44 AM CEST 7:43 PM CEST
Civil Twilight 6:15 AM CEST 8:12 PM CEST
Nautical Twilight 5:41 AM CEST 8:46 PM CEST
Astronomical Twilight 5:05 AM CEST 9:22 PM CEST
Moon 6:40 AM CEST (9/5) 7:24 PM CEST (9/5)
Length of Visible Light 13h 56m
Length of Day
12h 58m
Waning Crescent, 0% of the Moon is Illuminated
Sep 5
Waning Crescent
Sep 5
New
Sep 12
First Quarter
Sep 19
Full
Sep 27
Last Quarter

Hourly Weather History & Observations

Time (CEST) Temp. Heat Index Dew Point Humidity Pressure Visibility Wind Dir Wind Speed Gust Speed Precip Events Conditions
12:55 AM 68.0 °F - 64.4 °F 88% 30.09 in - North - - N/A   Clear
1:55 AM 68.0 °F - 62.6 °F 83% 30.09 in - North - - N/A   Clear
2:00 AM 68 °F - 63 °F 79% 30.12 in 12 mi NNE 8.1 mph - -  
2:55 AM 68.0 °F - 62.6 °F 83% 30.06 in - North - - N/A   Clear
3:55 AM 66.2 °F - 62.6 °F 88% 30.06 in - North - - N/A   Clear
5:55 AM 64.4 °F - 60.8 °F 88% 30.04 in - North - - N/A   Clear
6:55 AM 64.4 °F - 59.0 °F 83% 30.04 in - North - - N/A   Clear
7:55 AM 68.0 °F - 59.0 °F 73% 30.04 in - North - - N/A   Clear
8:55 AM 73.4 °F - 57.2 °F 57% 30.04 in - North - - N/A   Clear
9:55 AM 80.6 °F - 51.8 °F 37% 30.04 in - North - - N/A   Clear
10:55 AM 84.2 °F 82.8 °F 53.6 °F 35% 30.04 in - North - - N/A   Partly Cloudy
11:55 AM 86.0 °F 84.9 °F 57.2 °F 37% 30.04 in - North - - N/A   Partly Cloudy
12:55 PM 87.8 °F 86.1 °F 55.4 °F 33% 30.01 in - North - - N/A   Partly Cloudy
1:55 PM 89.6 °F 88.1 °F 57.2 °F 33% 30.01 in - North - - N/A   Partly Cloudy
2:00 PM 90 °F - 57 °F 23% 30.01 in 25 mi SW 8.1 mph - -   Scattered Clouds
2:55 PM 89.6 °F 88.1 °F 57.2 °F 33% 29.98 in - North - - N/A   Partly Cloudy
3:55 PM 87.8 °F 86.5 °F 57.2 °F 35% 29.98 in - North - - N/A   Partly Cloudy
4:55 PM 86.0 °F 86.6 °F 62.6 °F 45% 29.98 in - North - - N/A   Partly Cloudy
5:55 PM 84.2 °F 85.6 °F 64.4 °F 51% 29.98 in - North - - N/A   Partly Cloudy
6:55 PM 82.4 °F 85.4 °F 68.0 °F 62% 29.95 in - North - - N/A   Partly Cloudy
7:55 PM 78.8 °F - 71.6 °F 78% 29.95 in - North - - N/A   Partly Cloudy
8:00 PM 78 °F - 72 °F 76% 29.97 in 25 mi SW 4.6 mph - -   Scattered Clouds
8:55 PM 77.0 °F - 71.6 °F 83% 29.98 in - North - - N/A   Clear
9:55 PM 75.2 °F - 71.6 °F 89% 29.98 in - North - - N/A   Clear
10:55 PM 75.2 °F - 71.6 °F 89% 29.98 in - North - - N/A   Clear
11:55 PM 71.6 °F - 69.8 °F 94% 29.95 in - North - - N/A   Clear